[Date Prev][Date Next][Thread Prev][Thread Next] - [Date Index][Thread Index][Author Index]

2 LIne ISS Keps 8-7



ISS
1 25544U 98067A   01219.16863426  .00021456  00000-0  28513-3 0  3117
2 25544  51.6383 191.4127 0011650 345.3354  49.6767 15.58071779155047


----
Via the sarex mailing list at AMSAT.ORG courtesy of AMSAT-NA.
To unsubscribe, send "unsubscribe sarex" to Majordomo@amsat.org



AMSAT Top AMSAT Home